Weather History for Fort Leonard Wood, MO

Change the Weather History Date:

Monday, October 1, 2012

  Actual Average Record
Temperature  
Mean Temperature 56 °F -  
Max Temperature 68 °F 72 °F 87 °F (2002)
Min Temperature 45 °F 52 °F 42 °F (2003)
Degree Days  
Heating Degree Days 8    
Growing Degree Days 6 (Base 50)    
Moisture  
Dew Point 50 °F    
Average Humidity 78    
Maximum Humidity 100    
Minimum Humidity 48    
Precipitation  
Precipitation 0.00 in - - ()
Sea Level Pressure  
Sea Level Pressure 29.79 in    
Wind  
Wind Speed 4 mph (North)    
Max Wind Speed 12 mph    
Max Gust Speed -    
Visibility 10 miles    
Events      
Averages and records for this station are not official NWS values.
T = Trace of Precipitation, MM = Missing Value Source: NWS Daily Summary

Daily Weather History Graph

Daily Weather History Graph

Search for Another Location

Airport:

Trip Planner

Search our weather history database for the weather conditions in past years. The results will help you decide how hot, cold, wet, or windy it might be!

Date:

Astronomy

Oct. 01, 2012 Rise Set
Actual Time 7:04 AM CDT 6:50 PM CDT
Civil Twilight 6:38 AM CDT 7:16 PM CDT
Nautical Twilight 6:08 AM CDT 7:47 PM CDT
Astronomical Twilight 5:37 AM CDT 8:17 PM CDT
Moon 7:31 PM CDT (10/1) 8:31 AM CDT (10/1)
Length of Visible Light 12h 38m
Length of Day
11h 46m
Full, 98% of the Moon is Illuminated
Oct 1
Full
Oct 8
Last Quarter
Oct 15
New
Oct 21
First Quarter
Oct 29
Full

Hourly Weather History & Observations

Time (CDT) Temp. Dew Point Humidity Pressure Visibility Wind Dir Wind Speed Gust Speed Precip Events Conditions
12:55 AM 55.9 °F 55.6 °F 99% 29.83 in 10.0 mi Calm Calm - N/A   Overcast
1:55 AM 55.6 °F 55.6 °F 100% 29.82 in 10.0 mi North 4.6 mph - N/A   Overcast
2:55 AM 56.1 °F 55.2 °F 97% 29.79 in 10.0 mi Calm Calm - N/A   Mostly Cloudy
3:55 AM 54.1 °F 54.0 °F 99% 29.78 in 10.0 mi North 3.5 mph - N/A   Overcast
4:55 AM 55.9 °F 53.4 °F 91% 29.77 in 10.0 mi North 6.9 mph - N/A   Overcast
5:55 AM 55.4 °F 52.9 °F 91% 29.78 in 10.0 mi NNE 3.5 mph - N/A   Overcast
6:55 AM 53.4 °F 52.2 °F 95% 29.79 in 10.0 mi Calm Calm - N/A   Overcast
7:55 AM 53.4 °F 53.1 °F 99% 29.81 in 10.0 mi NNW 3.5 mph - N/A   Mostly Cloudy
8:55 AM 56.7 °F 51.8 °F 84% 29.80 in 10.0 mi North 3.5 mph - N/A   Partly Cloudy
9:55 AM 58.3 °F 51.6 °F 78% 29.80 in 10.0 mi North 5.8 mph - N/A   Partly Cloudy
10:55 AM 61.7 °F 52.2 °F 71% 29.80 in 10.0 mi North 6.9 mph - N/A   Clear
11:55 AM 63.5 °F 50.9 °F 63% 29.80 in 10.0 mi North 9.2 mph - N/A   Scattered Clouds
12:55 PM 65.3 °F 49.5 °F 57% 29.78 in 10.0 mi NNE 9.2 mph - N/A   Mostly Cloudy
1:55 PM 65.7 °F 48.0 °F 53% 29.76 in 10.0 mi NNE 8.1 mph - N/A   Scattered Clouds
2:55 PM 66.2 °F 48.4 °F 53% 29.75 in 10.0 mi North 10.4 mph - N/A   Scattered Clouds
3:55 PM 67.1 °F 46.8 °F 48% 29.75 in 10.0 mi NE 10.4 mph - N/A   Clear
4:55 PM 66.9 °F 46.8 °F 48% 29.75 in 10.0 mi NNE 11.5 mph - N/A   Clear
5:55 PM 64.8 °F 46.6 °F 52% 29.76 in 10.0 mi NNE 10.4 mph - N/A   Partly Cloudy
6:55 PM 59.5 °F 46.2 °F 61% 29.78 in 10.0 mi NNE 4.6 mph - N/A   Clear
7:55 PM 57.2 °F 46.0 °F 66% 29.81 in 10.0 mi Calm Calm - N/A   Clear
8:55 PM 55.0 °F 46.0 °F 72% 29.81 in 10.0 mi NNE 3.5 mph - N/A   Clear
9:55 PM 48.4 °F 46.0 °F 92% 29.83 in 10.0 mi NW 3.5 mph - N/A   Clear
10:55 PM 46.6 °F 45.7 °F 97% 29.83 in 10.0 mi Calm Calm - N/A   Clear
11:55 PM 45.1 °F 44.6 °F 98% 29.82 in 10.0 mi Calm Calm - N/A   Clear